Weather Roundup
Issued by NWS Chicago, IL

Home | Current Version | Previous Version | Graphics & Text | Print | Product List | Glossary On
Versions: 1 2 3 4 5 6 7 8 9 10 11 12 13 14 15 16 17 18 19 20 21 22 23 24 25 26 27 28 29 30 31 32 33 34 35 36 37 38 39 40 41 42 43 44 45 46 47 48 49 50
742
NZUS59 KLOT 241703
HRRLOT

CHICAGO AREA WEATHER ROUNDUP
NATIONAL WEATHER SERVICE CHICAGO/ROMEOVILLE IL
1200 PM CDT FRI MAR 24 2017

NOTE: "FAIR" INDICATES FEW OR NO CLOUDS BELOW 12,000 FEET WITH NO
SIGNIFICANT WEATHER AND/OR OBSTRUCTIONS TO VISIBILITY.

* THESE STATIONS ARE NOT UNDER NWS QUALITY CONTROL. THEY ALSO MAY NOT
  REPORT WEATHER SUCH AS PRECIPITATION OR FOG.

ILZ005-006-012>014-019>023-241800-
NORTHEAST ILLINOIS

CITY           SKY/WX    TMP DP  RH WIND       PRES   REMARKS
OHARE          MOSUNNY   75  49  39 SW18G28   29.91S
MIDWAY         MOSUNNY   74  49  41 SW26G35   29.93S
AURORA         SUNNY     76  48  37 SW21G31   29.91F
LANSING*       SUNNY     72  55  53 SW23G31   29.95F
JOLIET*        SUNNY     75  51  43 SW15G21   29.94S
WAUKEGAN       CLOUDY    72  50  45 SW16G25   29.89S
DUPAGE AIRPORT SUNNY     75  49  39 SW22G36   29.91F
WHEELING       SUNNY     74  50  42 SW15G24   29.91F
MORRIS*        SUNNY     76  47  36 SW28      29.92F
NORTHERLY ISL    N/A     72  46  39 S15         N/A
$$

WIZ051-052-058>065-066-070>072-241800-
SOUTHEAST WISCONSIN

CITY           SKY/WX    TMP DP  RH WIND       PRES   REMARKS
MILWAUKEE      PTSUNNY   56  43  61 NE9       29.90S
KENOSHA*       CLOUDY    72  51  47 SW23G33   29.88F
RACINE*        CLOUDY    68  49  50 SW15      29.90S
WAUKESHA       MOSUNNY   63  48  59 W15       29.90S
WEST BEND      CLOUDY    54  45  71 W3        29.90S
$$

INZ001>003-010>013-019-020-241800-
NORTHWEST INDIANA

CITY           SKY/WX    TMP DP  RH WIND       PRES   REMARKS
GARY*          MOSUNNY   73  46  38 S16G32    29.95F
MICHIGAN CITY* NOT AVBL
RENSSELAER*    NOT AVBL
VALPARAISO     SUNNY     75  51  43 SW21G33   29.98F
$$

LMZ740>746-241800-
SOUTHERN LAKE MICHIGAN

STATION/POSITION TIME  SKY/WX   TEMP WIND        PRES    VSBY
                                AIR  DIR/SP/G
                 (UTC)          (F)  (DEG/KT/KT) (MB)    (MI)
HARRISON CRIB    1640            69  220/ 28/ 33   N/A
BURNHAM HARBOR   1700            72  190/ 11/ 20   N/A
CALUMET HARBOR   1630            69  210/ 14/ 26 1013.1F
BURNS HARBOR     1640            68  220/ 21/ 29 1014.6S
MICHIGAN CITY    1640            69  200/ 24/ 27   N/A
$$

ABBREVIATIONS USED IN REMARKS
   TC - TEMPERATURE IN CELSIUS
  WCI - WIND CHILL INDEX
   HX - HEAT INDEX
  VSB - VISIBILITY
$$




USA.gov is the U.S. government's official web portal to all federal, state and local government web resources and services.